Weather Roundup
Issued by NWS

Home | Current Version | Previous Version | Graphics & Text | Print | Product List | Glossary Off
Versions: 1 2 3 4 5 6 7 8 9 10 11 12 13 14 15 16 17 18 19 20 21 22 23 24 25 26 27 28 29 30 31 32 33 34 35 36 37 38 39 40 41 42 43 44 45 46 47 48 49 50

000
NZUS93 KARX 281710
HRRWXR

CURRENT HOURLY OBSERVATIONS ACROSS
MUCH OF THE UPPER MISSISSIPPI VALLEY
NATIONAL WEATHER SERVICE LA CROSSE WI
1200 PM CDT MON JUL 28 2014


...SOUTHEAST MINNESOTA...


CITY           SKY/WX    TMP DP  RH WIND       PRES   REMARKS
ROCHESTER      CLOUDY    70  52  52 N6        30.22S
ROCHESTER/MAYO CLOUDY    69  46  42 NW5       30.21S
WINONA         MOSUNNY   73  54  49 N7        30.18F
AUSTIN         MOSUNNY   70  55  60 N10       30.20S
ALBERT LEA     PTSUNNY   72  55  56 NW7       30.22S
DODGE CENTER   PTSUNNY   68  57  68 N8        30.21S
PRESTON        CLOUDY    67  58  75 N7        30.21S
OWATONNA       MOSUNNY   72  55  56 N6        30.21F
FARIBAULT      CLOUDY    75  46  35 N6        30.21S
$$

...ELSEWHERE IN MINNESOTA...


CITY           SKY/WX    TMP DP  RH WIND       PRES   REMARKS
MINNEAPOLIS    PTSUNNY   72  51  47 N9        30.20F
INTNL FALLS    SUNNY     72  54  53 NW9       30.19F
DULUTH         MOSUNNY   71  53  52 NW13G20   30.18S
RED WING       CLOUDY    73  54  49 W3        30.18F
REDWOOD FALLS  MOSUNNY   74  55  51 N7        30.23F
MANKATO        CLOUDY    70  57  64 NW9       30.22F
WORTHINGTON    CLOUDY    66  57  72 N9        30.27S
FAIRMONT       PTSUNNY   66  55  68 NW5       30.24S
$$

...SOUTHWEST WISCONSIN...


CITY           SKY/WX    TMP DP  RH WIND       PRES   REMARKS
LA CROSSE      PTSUNNY   74  49  41 NW10      30.16F
PRAIRIE DU CHI SUNNY     71  44  37 N10       30.17S
BOSCOBEL       MOSUNNY   74  49  41 VRB5      30.17S
LONE ROCK      MOSUNNY   74  51  44 N12       30.15F
PLATTEVILLE    MOSUNNY   69  49  49 N15G22    30.17S
FORT MC COY    MOSUNNY   71  48  43 N8        30.16F
CAMP DOUGLAS   PTSUNNY   72  55  56 N10       30.15S
VIROQUA        PTSUNNY   69  50  51 N8        30.18S
WIS DELLS      CLOUDY    69  46  43 N6        30.14S
$$

...ELSEWHERE IN WISCONSIN...


CITY           SKY/WX    TMP DP  RH WIND       PRES   REMARKS
MILWAUKEE      MOSUNNY   65  49  56 NE14      30.10S
MADISON        MOSUNNY   70  49  47 N14G21    30.14S
GREEN BAY      SUNNY     66  50  56 NW9       30.10F
EAU CLAIRE     CLOUDY    72  51  47 NW9       30.17S
BLACK RVR FLS  PTSUNNY   73  48  40 NW7       30.16S
MEDFORD        MOSUNNY   68  51  55 N13G18    30.15F
WAUSAU         MOSUNNY   69  49  48 NW15G28   30.11F
WIS RAPIDS     MOSUNNY   71  51  49 NW15      30.15F
MARSHFIELD     SUNNY     71  52  50 NW17      30.15S
RICE LAKE      CLOUDY    70  50  49 NW9       30.20S
$$

...NORTHEAST IOWA...


CITY           SKY/WX    TMP DP  RH WIND       PRES   REMARKS
WATERLOO       PTSUNNY   70  54  56 N12G17    30.18F
DUBUQUE        SUNNY     68  50  52 N16       30.17R
DECORAH        MOSUNNY   70  54  56 N8        30.18F
MASON CITY     PTSUNNY   71  55  56 NW13      30.23S
CHARLES CITY   MOSUNNY   72  55  56 NW9       30.20S
OELWEIN        MOSUNNY   70  54  56 N9G16     30.20S
$$

...ELSEWHERE IN IOWA...


CITY           SKY/WX    TMP DP  RH WIND       PRES   REMARKS
DES MOINES     PTSUNNY   75  53  46 E6        30.22R
IOWA CITY      SUNNY     73  54  51 N14       30.19R
FORT DODGE     PTSUNNY   70  57  64 CALM      30.24S
MARSHALLTOWN   CLOUDY    69  56  62 N8        30.21S
CEDAR RAPIDS   MOSUNNY   70  49  47 N12       30.18S
$$

...NORTHERN ILLINOIS...


CITY           SKY/WX    TMP DP  RH WIND       PRES   REMARKS
CHICAGO-OHARE  MOSUNNY   67  42  40 N16G26    30.09R
DUPAGE         SUNNY     69  47  45 N16G23    30.09R
CHICAGO-MIDWAY MOSUNNY   68  47  46 N15G26    30.08R
MOLINE         SUNNY     71  48  43 N12       30.15R
ROCKFORD       MOSUNNY   70  47  43 N15G26    30.13S
STERLING       SUNNY     72  50  46 N12G21    30.13S
PEORIA         MOSUNNY   71  50  47 NW14G21   30.12S
$$

NOTE: "FAIR" INDICATES FEW OR NO CLOUDS BELOW 12,000 FEET WITH NO
SIGNIFICANT WEATHER AND/OR OBSTRUCTIONS TO VISIBILITY. WIND
SPEEDS ARE IN MILES-PER-HOUR.



USA.gov is the U.S. government's official web portal to all federal, state and local government web resources and services.